TIANWANG 1A (TW-1A)
1 40928U 15051D   19290.91841360 +.00002253 +00000-0 +55875-4 0  9994
2 40928 097.1360 319.5183 0011307 002.8911 080.8125 15.41353412227840
LAPAN A2
1 40931U 15052B   19289.50813792  .00000770  00000-0  17866-4 0  9990
2 40931   6.0052 282.2210 0015993  47.1467 313.0358 14.76617888219006
LQSAT
1 40958U 15057A   19290.74344478 +.00000018 +00000-0 +10490-4 0  9993
2 40958 097.8869 356.5957 0017512 208.9377 151.0862 14.73092126216633
CHUBUSAT 2
1 41338U 16012B   19290.78914816 +.00000297 +00000-0 +16354-4 0  9995
2 41338 031.0028 095.1583 0013865 223.4800 136.4742 15.00193630201118
CHUBUSAT 3
1 41339U 16012C   19290.74457711  .00000335  00000-0  19256-4 0  9995
2 41339  31.0097  93.3807 0013572 230.8754 129.0674 15.00366161201101
OUFTI-1
1 41458U 16025C   19290.71824327  .00000731  00000-0  41545-4 0  9995
2 41458  98.1006  23.7177 0164525 310.4331  48.2640 15.06086563190782
E-STAR-2
1 41459U 16025D   19290.76412310  .00000301  00000-0  20053-4 0  9990
2 41459  98.1007  23.3576 0165562 311.8348  46.8827 15.05705921190762
AAUSAT 4
1 41460U 16025E   19290.85078718 +.00001268 +00000-0 +67441-4 0  9997
2 41460 098.0967 025.0037 0155587 302.9209 055.7102 15.07693973190920
NUSAT 1
1 41557U 16033B   19290.85669030 +.00001100 +00000-0 +43647-4 0  9993
2 41557 097.4147 017.6462 0012592 224.7773 135.2451 15.27446109188583
BEESAT 4
1 41619U 16040W   19290.65097578 +.00001106 +00000-0 +49405-4 0  9994
2 41619 097.3547 350.5514 0010160 325.3232 034.7341 15.23372863172270
PRATHAM
1 41783U 16059A   19290.86078700 +.00000034 +00000-0 +15896-4 0  9991
2 41783 098.0539 347.6813 0033561 005.3335 354.8218 14.63014240163262
ALSAT 1N
1 41789U 16059G   19290.88262967 +.00000064 +00000-0 +21237-4 0  9998
2 41789 098.0571 349.9650 0028182 354.6220 005.4667 14.64268049163383
NAYIF 1
1 42017U 17008BX  19290.77330500 +.00001241 +00000-0 +51351-4 0  9993
2 42017 097.3912 356.5590 0007926 100.8791 259.3339 15.25796731148384
MAX VALIER SAT
1 42778U 17036P   19290.75559484 +.00000761 +00000-0 +36064-4 0  9990
2 42778 097.3410 345.6765 0013189 152.7030 207.4902 15.22185780128655
